Time,TemperatureF,DewpointF,PressureIn,WindDirection,WindDirectionDegrees,WindSpeedMPH,WindSpeedGustMPH,Humidity,HourlyPrecipIn,Conditions,Clouds,dailyrainin,SoftwareType,DateUTC
2013-07-23 00:22:00,70.0,70.0,29.70,WSW,256,0.0,0.0,100,0.00,,,1.10,,2013-07-23 04:22:00,
2013-07-23 00:32:00,70.0,70.0,29.70,WSW,256,0.0,0.0,100,0.00,,,1.10,,2013-07-23 04:32:00,
2013-07-23 00:43:00,70.0,70.0,29.70,WSW,256,0.0,0.0,100,0.00,,,1.10,,2013-07-23 04:43:00,
2013-07-23 00:53:00,70.0,70.0,29.70,WSW,256,0.0,0.0,100,0.00,,,1.10,,2013-07-23 04:53:00,
2013-07-23 01:11:00,69.0,69.0,29.71,WSW,256,0.0,0.0,100,0.00,,,1.10,,2013-07-23 05:11:00,
2013-07-23 01:33:00,69.0,69.0,29.71,WSW,256,0.0,0.0,100,0.00,,,1.10,,2013-07-23 05:33:00,
2013-07-23 01:44:00,69.0,69.0,29.71,WSW,256,0.0,0.0,100,0.00,,,1.10,,2013-07-23 05:44:00,
2013-07-23 01:52:00,69.0,69.0,29.72,WSW,256,0.0,0.0,100,0.00,,,1.10,,2013-07-23 05:52:00,
2013-07-23 02:33:00,69.0,69.0,29.72,WSW,256,0.0,0.0,100,0.00,,,1.10,,2013-07-23 06:33:00,
2013-07-23 02:42:00,69.0,69.0,29.72,WSW,256,0.0,0.0,100,0.00,,,1.10,,2013-07-23 06:42:00,
2013-07-23 02:52:00,69.0,69.0,29.71,WSW,256,0.0,0.0,100,0.00,,,1.10,,2013-07-23 06:52:00,
2013-07-23 03:01:00,69.0,69.0,29.70,WSW,256,0.0,0.0,100,0.00,,,1.10,,2013-07-23 07:01:00,
2013-07-23 03:12:00,69.0,69.0,29.70,WSW,256,0.0,0.0,100,0.00,,,1.10,,2013-07-23 07:12:00,
2013-07-23 03:42:00,68.0,68.0,29.70,WSW,256,0.0,0.0,100,0.00,,,1.10,,2013-07-23 07:42:00,
2013-07-23 04:01:00,68.0,68.0,29.69,WSW,256,0.0,0.0,100,0.00,,,1.10,,2013-07-23 08:01:00,
2013-07-23 04:11:00,68.0,68.0,29.69,WSW,256,0.0,0.0,100,0.00,,,1.10,,2013-07-23 08:11:00,
2013-07-23 04:33:00,68.0,68.0,29.68,WSW,256,0.0,0.0,100,0.00,,,1.10,,2013-07-23 08:33:00,
2013-07-23 04:52:00,68.0,68.0,29.68,WSW,256,0.0,0.0,100,0.00,,,1.10,,2013-07-23 08:52:00,
2013-07-23 05:01:00,68.0,68.0,29.67,SW,218,1.0,1.0,100,0.00,,,1.10,,2013-07-23 09:01:00,
2013-07-23 05:42:00,69.0,69.0,29.67,West,259,2.0,3.0,100,0.00,,,1.10,,2013-07-23 09:42:00,
2013-07-23 06:02:00,70.0,70.0,29.67,SSW,205,0.0,0.0,100,0.00,,,1.10,,2013-07-23 10:02:00,
2013-07-23 06:22:00,69.0,69.0,29.66,SSW,198,0.0,0.0,100,0.00,,,1.10,,2013-07-23 10:22:00,
2013-07-23 06:44:00,70.0,70.0,29.67,SW,236,1.0,2.0,100,0.00,,,1.10,,2013-07-23 10:44:00,
2013-07-23 06:52:00,70.0,70.0,29.67,WNW,293,2.0,2.0,100,0.00,,,1.10,,2013-07-23 10:52:00,
2013-07-23 07:12:00,71.0,71.0,29.65,WSW,250,2.0,2.0,100,0.00,,,1.10,,2013-07-23 11:12:00,
2013-07-23 07:22:00,71.0,71.0,29.65,WSW,250,2.0,2.0,100,0.00,,,1.10,,2013-07-23 11:22:00,
2013-07-23 07:32:00,71.0,71.0,29.65,WSW,250,2.0,2.0,100,0.00,,,1.10,,2013-07-23 11:32:00,
2013-07-23 07:43:00,71.0,71.0,29.65,SW,231,3.0,7.0,100,0.00,,,1.10,,2013-07-23 11:43:00,
2013-07-23 07:52:00,71.0,71.0,29.65,SW,231,3.0,7.0,100,0.00,,,1.10,,2013-07-23 11:52:00,
2013-07-23 08:02:00,71.0,71.0,29.65,SW,231,3.0,7.0,100,0.00,,,1.10,,2013-07-23 12:02:00,
2013-07-23 08:11:00,71.0,71.0,29.65,SW,231,3.0,7.0,100,0.00,,,1.10,,2013-07-23 12:11:00,
2013-07-23 08:33:00,73.0,73.0,29.65,WSW,248,2.0,6.0,100,0.01,,,1.10,,2013-07-23 12:33:00,
2013-07-23 08:43:00,73.0,73.0,29.65,WSW,248,2.0,6.0,100,0.01,,,1.10,,2013-07-23 12:43:00,
2013-07-23 09:32:00,75.0,75.0,29.66,SW,225,3.0,3.0,100,0.00,,,1.10,,2013-07-23 13:32:00,
2013-07-23 10:02:00,77.0,77.0,29.67,West,277,2.0,4.0,99,0.00,,,1.10,,2013-07-23 14:02:00,
2013-07-23 10:22:00,77.0,77.0,29.67,South,190,2.0,2.0,99,0.00,,,1.10,,2013-07-23 14:22:00,
2013-07-23 10:33:00,77.0,77.0,29.67,South,190,2.0,2.0,99,0.00,,,1.10,,2013-07-23 14:33:00,
2013-07-23 10:44:00,79.0,78.0,29.67,WSW,249,1.0,1.0,97,0.00,,,1.10,,2013-07-23 14:44:00,
2013-07-23 10:53:00,79.0,78.0,29.67,WSW,249,1.0,1.0,97,0.00,,,1.10,,2013-07-23 14:53:00,
2013-07-23 11:24:00,81.0,78.0,29.68,West,259,2.0,2.0,92,0.00,,,1.10,,2013-07-23 15:24:00,
2013-07-23 11:32:00,81.0,78.0,29.68,West,259,2.0,2.0,92,0.00,,,1.10,,2013-07-23 15:32:00,
2013-07-23 11:43:00,82.0,78.0,29.69,West,276,6.0,8.0,89,0.00,,,1.10,,2013-07-23 15:43:00,
2013-07-23 11:52:00,82.0,78.0,29.68,West,273,5.0,5.0,88,0.00,,,1.10,,2013-07-23 15:52:00,
2013-07-23 12:01:00,83.0,79.0,29.68,North,3,4.0,4.0,87,0.00,,,1.10,,2013-07-23 16:01:00,
2013-07-23 12:33:00,84.0,79.0,29.68,West,269,8.0,8.0,85,0.00,,,1.10,,2013-07-23 16:33:00,
2013-07-23 12:43:00,85.0,79.0,29.67,West,266,3.0,3.0,83,0.00,,,1.10,,2013-07-23 16:43:00,
2013-07-23 13:02:00,86.0,80.0,29.67,South,191,4.0,5.0,83,0.00,,,1.10,,2013-07-23 17:02:00,
2013-07-23 13:11:00,86.0,80.0,29.67,South,191,4.0,5.0,83,0.00,,,1.10,,2013-07-23 17:11:00,
2013-07-23 13:32:00,85.0,79.0,29.66,WNW,283,4.0,6.0,83,0.00,,,1.10,,2013-07-23 17:32:00,
2013-07-23 13:42:00,86.0,80.0,29.66,West,278,2.0,2.0,82,0.00,,,1.10,,2013-07-23 17:42:00,
2013-07-23 16:06:00,77.0,75.0,29.66,SSW,204,3.0,3.0,93,0.26,,,1.10,,2013-07-23 20:06:00,
2013-07-23 16:13:00,79.0,75.0,29.66,SSE,158,5.0,7.0,89,0.26,,,1.10,,2013-07-23 20:13:00,
2013-07-23 16:56:00,82.0,75.0,29.65,SW,214,3.0,3.0,79,0.00,,,1.10,,2013-07-23 20:56:00,
2013-07-23 17:54:00,87.0,78.0,29.62,WNW,285,0.0,2.0,75,0.00,,,1.10,,2013-07-23 21:54:00,
2013-07-23 18:34:00,86.0,77.0,29.62,NW,321,3.0,5.0,75,0.00,,,1.10,,2013-07-23 22:34:00,
2013-07-23 18:45:00,86.0,75.0,29.62,North,352,3.0,3.0,71,0.00,,,1.10,,2013-07-23 22:45:00,
2013-07-23 18:56:00,86.0,76.0,29.62,WSW,255,2.0,2.0,72,0.00,,,1.10,,2013-07-23 22:56:00,
2013-07-23 19:35:00,84.0,75.0,29.62,WSW,239,2.0,2.0,74,0.00,,,1.10,,2013-07-23 23:35:00,
2013-07-23 19:44:00,83.0,75.0,29.63,NNW,329,1.0,8.0,76,0.00,,,1.10,,2013-07-23 23:44:00,
2013-07-23 19:57:00,83.0,75.0,29.63,NNW,329,1.0,8.0,76,0.00,,,1.10,,2013-07-23 23:57:00,
2013-07-23 20:08:00,81.0,75.0,29.63,East,86,1.0,3.0,81,0.00,,,1.10,,2013-07-24 00:08:00,
2013-07-23 20:14:00,80.0,74.0,29.63,NE,41,1.0,4.0,82,0.00,,,1.10,,2013-07-24 00:14:00,
2013-07-23 20:34:00,80.0,74.0,29.63,WNW,290,4.0,4.0,82,0.00,,,1.10,,2013-07-24 00:34:00,
2013-07-23 20:58:00,78.0,73.0,29.64,WNW,301,1.0,0.0,84,0.00,,,1.10,,2013-07-24 00:58:00,
2013-07-23 21:04:00,78.0,73.0,29.64,NW,315,0.0,0.0,85,0.00,,,1.10,,2013-07-24 01:04:00,
2013-07-23 21:15:00,78.0,73.0,29.64,NW,315,0.0,0.0,85,0.00,,,1.10,,2013-07-24 01:15:00,
2013-07-23 21:33:00,77.0,72.0,29.65,NE,46,0.0,0.0,86,0.00,,,1.10,,2013-07-24 01:33:00,
2013-07-23 22:17:00,74.0,71.0,29.69,NNE,28,2.0,0.0,90,0.00,,,0.54,,2013-07-24 02:17:00,
2013-07-23 22:38:00,74.0,71.0,29.70,NNE,31,6.0,6.0,91,0.00,,,0.54,,2013-07-24 02:38:00,
2013-07-23 22:47:00,73.0,70.0,29.72,NE,35,2.0,2.0,91,0.00,,,0.54,,2013-07-24 02:47:00,
2013-07-23 22:55:00,73.0,70.0,29.72,North,359,3.0,6.0,89,0.00,,,0.54,,2013-07-24 02:55:00,
2013-07-23 23:13:00,72.0,68.0,29.73,SW,226,5.0,5.0,88,0.00,,,0.54,,2013-07-24 03:13:00,
2013-07-23 23:24:00,72.0,69.0,29.74,NE,53,1.0,0.0,89,0.00,,,0.54,,2013-07-24 03:24:00,